Temperature
14 14 15 15 14 14 14 14 14 14 14 14 14 14 14 14 14 14 14 14 14 14 14 14 14 14 14 14 14 13 13 13 13 13 13 12 12 12 12 12 12 11 11
14 14 14 14 14 14 14 14 14 14 14 14 14 14 14 14 14 14 14 14 14 14 14 14 14 14 14 14 13 13 13 13 13 13 13 12 12 12 12 12 11 11 11
14 14 14 14 14 14 14 14 14 14 14 14 14 14 14 14 14 14 14 14 14 14 14 14 14 13 13 13 13 13 13 13 13 13 13 12 12 12 12 11 11 11 11
14 14 14 14 14 14 14 14 14 14 14 14 14 14 14 14 14 14 14 14 14 14 14 14 13 13 13 13 13 13 13 13 13 13 13 12 12 12 12 11 11 11 11
14 14 14 14 14 14 14 14 14 14 14 14 14 14 14 14 14 14 13 14 14 14 14 14 13 13 13 13 13 13 13 13 13 13 13 12 12 12 11 11 11 11 11
13 14 14 14 13 13 13 13 13 13 13 13 13 13 13 13 13 13 13 13 14 14 13 13 13 13 13 13 13 13 13 13 13 13 13 12 12 12 11 11 11 11 10
13 13 13 13 13 13 13 13 13 13 13 13 12 12 13 13 13 13 13 13 13 13 13 13 13 13 13 13 13 13 13 13 13 12 12 12 12 11 11 11 11 11 10
13 13 13 13 13 13 13 13 13 12 12 12 12 12 12 12 13 13 13 13 13 13 13 13 13 13 13 13 13 13 13 12 12 12 12 12 11 11 11 11 10 10 10
12 12 12 12 13 13 12 12 12 12 12 12 12 12 12 13 13 13 13 13 13 13 13 13 13 13 13 13 13 13 13 12 12 12 12 11 11 11 10 10 10 10 10
12 12 12 12 12 12 12 12 12 12 12 12 12 12 12 13 13 13 13 13 13 13 13 13 13 13 13 13 13 13 13 12 12 11 11 11 11 11 10 10 10 10 10
11 12 12 12 12 12 12 12 12 12 12 12 11 11 11 12 12 12 12 12 13 13 13 13 13 13 13 13 13 13 12 12 12 11 11 11 11 10 10 10 10 10 9
11 11 11 11 11 11 11 12 12 12 12 12 11 11 11 11 12 12 12 12 12 13 13 13 13 13 12 12 12 12 12 12 11 11 11 10 10 10 10 10 10 9 9
10 11 11 11 11 11 11 11 11 11 11 11 11 11 11 11 11 12 12 12 12 12 12 12 12 12 12 12 12 12 12 11 11 11 10 10 10 10 10 9 9 9 9
10 10 10 10 10 11 11 11 11 11 11 11 11 11 11 11 11 11 11 11 11 11 11 12 12 12 12 12 12 11 11 11 10 10 10 10 10 9 9 9 9 9 9
9 10 10 10 10 10 10 10 11 11 11 11 10 10 10 10 10 11 11 11 11 11 11 11 11 12 11 11 11 11 11 10 10 10 9 9 9 9 9 9 8 8 8
9 9 9 9 9 10 10 10 10 10 10 10 10 10 10 10 10 10 10 10 10 10 10 10 11 11 11 11 10 10 10 10 10 9 9 9 9 8 8 8 8 8 8
8 8 8 9 9 9 9 9 9 9 10 10 9 9 9 10 9 9 9 9 9 9 9 9 10 10 10 10 10 10 9 9 9 9 8 8 8 8 8 8 7 7 7
8 8 8 8 8 8 8 9 9 9 9 9 9 9 9 9 9 9 9 8 8 8 8 8 9 9 9 9 9 9 9 9 9 8 8 7 7 7 7 7 7 7 7
7 7 7 7 7 8 8 8 8 8 8 8 8 8 8 8 8 8 8 8 8 8 8 8 8 8 8 8 8 8 8 8 8 8 7 7 7 7 7 6 6 6 6
6 6 6 6 6 7 7 7 7 7 7 7 7 7 7 7 7 7 7 7 7 7 7 7 7 7 7 7 7 7 7 7 7 7 7 6 6 6 6 6 6 6 6
5 5 5 5 6 6 6 6 6 6 6 6 6 6 7 6 6 6 6 6 6 6 6 6 6 6 6 6 6 6 6 6 6 6 6 5 5 5 5 5 5 5 5
4 4 4 4 4 5 5 5 5 5 5 5 5 6 6 6 5 5 5 5 5 5 5 5 4 5 5 5 5 5 5 5 5 5 5 5 5 5 5 5 4 4 4
3 3 3 3 3 3 3 4 4 4 4 4 4 4 4 5 4 4 4 4 4 4 4 4 4 4 4 4 4 4 4 4 4 5 4 4 4 4 4 4 4 4 4
2 2 2 2 2 2 2 3 3 3 3 3 3 3 3 3 3 3 3 3 3 3 3 3 3 3 3 4 4 4 4 3 3 3 4 3 4 4 4 3 3 3 3
1 1 1 1 1 1 1 1 1 2 2 2 2 2 2 2 2 2 2 2 2 2 2 2 2 2 3 3 3 3 2 2 2 3 3 3 3 3 3 3 3 3 3
0 0 0 0 0 0 0 0 0 0 0 0 1 1 1 1 1 1 1 1 1 1 1 1 1 2 2 2 2 2 2 2 2 2 2 2 2 2 2 2 2 2 2
Wind_Speed
11 11 11 12 14 14 14 13 13 13 12 12 12 11 10 10 9 8 7 10 9 9 9 9 8 8 7 6 5 5 4 3 3 4 4 4 3 3 3 3 3 4 5
12 11 12 12 12 13 14 13 13 11 10 10 11 11 11 10 10 10 8 9 11 10 10 10 10 9 8 7 7 6 5 5 4 4 4 4 4 4 4 4 4 4 5
14 12 11 11 12 14 14 12 13 11 10 10 11 11 10 11 10 10 10 9 10 12 12 12 11 10 9 8 8 7 6 6 5 5 5 5 4 4 4 4 4 4 5
17 13 11 11 13 13 12 10 10 10 10 10 10 10 9 9 11 11 10 10 9 9 12 13 13 11 10 10 9 9 8 7 7 6 6 5 5 5 5 5 5 5 5
17 14 11 11 13 11 11 11 11 11 11 10 10 9 9 9 10 10 11 11 11 10 10 12 14 13 12 11 11 10 10 9 8 8 7 6 6 6 6 5 6 6 6
16 15 11 12 12 11 11 12 12 11 10 9 8 8 9 9 9 10 11 10 10 11 11 11 11 12 14 13 12 12 11 10 10 10 9 8 8 7 7 7 7 6 6
15 14 11 12 12 12 13 14 12 12 10 8 7 7 9 10 11 10 10 10 10 11 12 12 11 10 11 14 14 13 13 12 12 11 10 9 8 8 8 8 7 7 7
14 13 14 12 13 12 14 14 13 10 8 10 8 7 7 9 10 10 10 10 11 10 11 13 13 12 11 10 11 14 14 13 13 12 11 10 10 9 9 9 9 8 7
14 13 14 13 13 13 12 14 14 14 11 11 10 8 7 8 7 8 12 11 11 10 10 11 13 13 13 12 11 13 15 14 13 13 12 11 11 10 10 10 10 9 8
13 14 14 14 14 13 13 14 14 12 12 11 10 10 9 5 6 6 8 10 11 11 11 9 11 13 14 13 12 13 15 15 15 14 13 12 12 11 11 11 10 10 9
12 13 14 14 14 14 14 14 14 14 12 12 10 9 10 8 8 7 7 7 8 10 10 11 10 11 13 14 13 14 16 17 16 16 15 14 12 12 11 11 10 10 9
9 11 12 13 14 13 14 14 14 15 14 14 12 11 9 9 10 9 9 8 8 8 9 9 10 10 11 13 14 16 17 17 17 17 16 15 13 12 12 11 11 10 9
7 9 10 11 11 13 14 14 14 15 15 15 14 12 12 11 9 9 8 7 7 6 7 8 9 10 10 12 13 16 17 18 18 18 17 16 14 13 12 12 11 10 9
6 7 8 9 11 12 12 13 12 14 13 15 15 14 11 12 10 9 8 7 7 7 8 9 7 9 10 11 13 16 15 18 18 18 17 16 15 13 12 12 11 10 9
4 5 6 7 9 10 11 11 11 13 13 13 13 13 12 11 10 9 8 8 8 10 11 9 7 8 9 10 11 13 14 16 18 18 17 16 14 13 13 12 11 9 9
2 3 3 5 5 6 8 9 8 9 10 10 8 11 11 9 9 8 7 8 9 9 9 7 6 5 7 7 10 12 13 14 16 17 17 16 15 14 13 13 12 11 10
2 2 2 2 2 3 4 5 6 7 9 9 8 9 10 9 8 8 7 7 8 7 9 5 4 4 7 8 8 10 11 11 12 16 17 17 16 15 14 14 13 12 11
2 2 2 1 1 2 2 3 4 5 6 8 8 8 9 8 9 8 7 8 8 8 7 8 5 5 8 9 8 8 8 10 11 14 16 17 17 17 16 15 14 13 13
4 3 3 3 2 2 2 2 2 3 4 6 6 7 7 8 9 8 8 8 7 7 7 7 6 5 5 5 6 6 7 7 9 12 15 17 18 18 17 16 15 15 14
6 5 4 3 3 3 4 4 3 3 3 4 5 6 6 7 8 8 7 8 7 8 8 7 6 5 5 4 5 6 7 7 7 8 12 14 16 18 18 17 17 16 16
7 6 6 6 6 5 5 6 5 4 4 4 4 5 6 6 7 7 7 7 7 7 7 7 7 6 6 6 7 7 8 7 7 6 7 8 9 10 12 16 17 16 16
8 8 8 7 7 6 9 9 6 4 4 4 5 5 5 6 7 8 9 9 9 9 9 8 7 9 9 9 8 7 7 6 7 6 8 8 7 9 9 11 15 17 17
9 9 8 8 8 9 11 10 9 5 5 5 5 6 4 4 6 7 8 9 11 12 12 10 10 11 10 9 8 9 10 9 9 6 7 8 8 9 8 12 16 17 18
8 8 8 9 8 10 13 12 11 6 5 5 6 7 7 6 5 6 7 8 9 10 10 10 10 11 10 9 10 9 9 8 5 4 7 7 6 7 6 8 15 18 18
8 8 8 8 8 9 13 14 12 6 6 6 7 7 8 7 7 8 7 8 9 9 8 11 12 12 12 12 11 7 7 7 7 6 6 5 4 4 4 6 10 16 17
7 7 7 7 8 8 12 14 13 6 7 7 7 7 8 10 11 10 8 8 9 9 8 9 9 9 10 11 13 11 10 9 6 5 7 6 5 4 3 4 5 9 12
Wind_Direction
205 201 198 195 194 193 192 194 197 196 198 199 202 204 204 207 207 204 196 200 216 219 215 216 219 221 223 220 221 222 225 230 232 231 237 244 252 258 269 280 301 317 328
207 202 201 198 198 196 195 197 199 197 200 201 205 209 212 211 214 212 210 203 213 221 221 221 224 226 223 224 223 222 225 227 229 234 240 245 252 254 260 271 288 298 311
209 205 204 200 199 198 197 198 201 201 203 203 208 211 215 216 217 217 215 215 212 216 222 223 225 224 225 227 225 223 220 223 229 235 242 247 249 254 257 264 278 294 304
209 205 205 204 200 197 196 197 199 201 203 206 210 211 215 216 222 222 219 219 219 217 217 221 225 226 227 229 230 225 222 224 227 232 239 243 246 250 258 262 271 285 297
210 206 207 205 200 197 198 198 201 205 207 208 212 214 218 219 221 223 225 224 223 223 222 213 219 225 226 228 232 229 228 228 227 230 233 237 241 247 252 260 273 279 286
211 208 207 206 200 199 199 200 201 204 209 207 211 219 224 226 225 225 227 225 223 223 224 218 216 220 222 225 230 231 231 230 228 229 230 235 239 242 246 255 266 271 277
212 209 207 206 203 204 204 202 201 201 204 199 205 222 229 230 230 227 226 225 222 221 222 221 221 220 219 221 225 228 229 229 228 230 232 233 236 241 248 254 256 264 272
216 212 211 208 205 207 207 204 201 202 202 196 201 207 221 224 225 227 225 225 225 219 221 222 221 221 223 223 220 221 227 230 230 231 231 234 236 241 248 253 256 260 266
218 216 216 214 211 209 209 207 205 204 204 202 206 205 212 225 217 214 221 223 223 220 221 221 223 223 225 227 224 219 222 227 230 232 233 232 236 241 245 252 257 260 258
219 218 219 217 215 213 213 210 207 208 207 206 209 223 233 236 217 217 213 220 223 225 224 220 221 221 222 224 225 220 215 219 227 233 235 236 240 243 245 251 256 258 258
223 221 221 220 218 217 215 212 209 208 210 213 209 210 224 230 229 228 228 218 220 224 224 223 222 222 222 222 222 221 215 218 224 230 234 237 239 242 246 249 253 257 259
223 223 224 224 223 221 220 217 213 213 212 214 215 214 214 215 217 222 233 227 227 224 220 223 224 223 222 222 223 218 215 218 224 228 233 236 238 241 244 247 250 251 252
224 223 223 225 226 225 222 219 217 215 215 214 216 218 220 224 224 225 232 236 235 231 226 227 226 224 222 223 223 215 217 219 222 225 230 234 236 238 241 242 244 243 243
231 228 226 229 232 232 229 224 221 221 220 218 218 219 222 225 224 221 223 224 233 238 234 235 222 218 219 222 223 212 221 219 220 225 229 231 231 233 234 237 237 237 237
250 240 233 233 236 234 233 230 226 225 222 220 221 222 223 225 226 224 223 224 229 243 243 237 226 215 214 219 217 219 225 219 217 222 225 226 228 226 225 228 229 230 233
278 268 255 245 244 242 236 231 228 226 222 223 223 224 225 226 227 224 223 229 232 239 247 235 229 218 209 217 215 220 227 222 220 220 222 224 224 221 220 223 221 223 226
349 310 279 259 255 255 244 233 229 229 227 225 223 226 228 224 224 223 222 225 229 232 244 246 237 220 210 217 215 219 222 222 223 221 223 222 221 219 220 217 217 219 219
357 340 325 311 300 294 283 263 248 240 236 232 229 229 231 227 227 227 225 228 230 229 235 243 241 226 224 220 218 219 218 218 223 221 221 223 221 218 216 214 215 217 217
14 8 8 9 356 346 329 305 286 269 253 246 240 236 238 233 231 230 229 230 232 234 235 239 242 236 233 217 220 226 226 226 224 221 221 223 223 220 218 217 217 217 213
20 17 16 7 357 359 354 341 324 315 291 272 256 247 243 238 238 239 237 236 235 234 235 235 236 233 232 217 215 225 231 229 229 222 223 223 224 221 220 220 219 217 211
23 21 24 24 20 16 5 348 336 322 316 307 288 263 250 245 245 243 242 241 238 237 237 239 240 240 231 215 220 220 228 232 236 225 226 223 218 220 218 218 218 214 210
26 27 28 27 23 18 11 5 354 338 329 327 325 302 274 252 251 247 244 243 239 238 240 241 242 242 242 235 233 227 226 231 240 213 216 227 215 221 216 214 214 211 209
28 31 30 30 27 21 16 12 7 352 346 342 338 334 309 288 279 267 257 248 242 240 239 242 248 246 246 238 232 231 228 230 239 213 203 226 216 225 216 212 209 208 208
22 22 20 20 20 17 13 10 1 354 347 343 336 330 322 307 295 290 279 267 261 253 248 247 249 251 251 244 236 237 239 243 260 224 199 220 211 221 216 213 209 205 206
16 15 13 13 14 12 11 7 0 351 347 342 338 334 330 317 318 312 287 276 273 271 264 260 261 260 254 245 238 235 228 229 245 232 207 208 198 200 207 215 208 204 205
7 6 8 8 8 6 7 4 358 350 343 336 332 329 332 330 320 315 294 285 279 281 284 281 273 264 254 241 229 226 222 225 236 231 200 192 187 174 197 209 202 199 204
Height
1518 1520 1522 1525 1527 1530 1532 1534 1537 1539 1541 1543 1544 1546 1547 1548 1549 1549 1549 1550 1550 1550 1550 1551 1551 1550 1550 1550 1550 1549 1548 1547 1547 1546 1545 1544 1543 1542 1541 1541 1539 1538 1537
1513 1516 1518 1521 1523 1526 1529 1531 1534 1536 1538 1540 1542 1543 1545 1546 1547 1547 1548 1548 1548 1548 1549 1549 1549 1549 1549 1549 1548 1548 1547 1546 1545 1544 1543 1543 1542 1541 1540 1539 1538 1537 1536
1509 1511 1514 1516 1519 1522 1525 1528 1530 1533 1535 1536 1538 1540 1542 1543 1544 1545 1545 1545 1546 1546 1546 1547 1547 1547 1547 1547 1546 1546 1545 1545 1544 1543 1542 1541 1540 1539 1538 1537 1537 1535 1535
1504 1506 1509 1512 1515 1518 1520 1523 1526 1528 1530 1532 1535 1537 1538 1539 1541 1542 1542 1543 1543 1543 1544 1544 1544 1545 1545 1544 1544 1544 1543 1543 1542 1541 1540 1539 1538 1538 1537 1536 1535 1534 1533
1498 1501 1504 1507 1510 1512 1515 1518 1521 1523 1526 1528 1531 1533 1534 1535 1537 1538 1539 1539 1540 1540 1541 1541 1541 1542 1542 1542 1541 1541 1541 1540 1539 1539 1538 1537 1536 1535 1534 1534 1533 1532 1530
1492 1496 1498 1501 1504 1507 1509 1512 1515 1518 1521 1524 1527 1528 1530 1532 1533 1534 1535 1536 1536 1537 1537 1538 1538 1538 1538 1538 1538 1538 1538 1537 1537 1536 1535 1534 1534 1533 1532 1531 1530 1529 1528
1487 1490 1493 1496 1499 1501 1504 1507 1510 1512 1516 1519 1523 1525 1526 1527 1528 1529 1530 1531 1532 1533 1533 1534 1534 1534 1534 1534 1535 1535 1534 1534 1534 1533 1532 1532 1531 1530 1529 1528 1527 1526 1525
1481 1484 1487 1490 1493 1496 1499 1501 1504 1507 1510 1513 1516 1520 1522 1524 1522 1523 1525 1526 1527 1528 1529 1530 1530 1530 1530 1531 1530 1531 1531 1530 1530 1529 1529 1528 1528 1527 1526 1525 1524 1523 1522
1475 1478 1481 1484 1487 1490 1492 1495 1498 1501 1504 1507 1510 1513 1516 1516 1518 1518 1518 1520 1521 1522 1523 1524 1525 1526 1526 1526 1526 1526 1526 1526 1526 1525 1525 1524 1524 1523 1522 1521 1520 1519 1518
1470 1473 1476 1479 1481 1484 1486 1489 1492 1495 1498 1500 1503 1506 1509 1510 1512 1512 1513 1514 1515 1516 1518 1518 1519 1520 1521 1521 1521 1521 1522 1522 1522 1521 1521 1520 1520 1519 1518 1517 1516 1515 1514
1464 1467 1470 1473 1475 1478 1480 1483 1486 1488 1491 1493 1496 1499 1502 1504 1505 1506 1506 1508 1508 1509 1511 1512 1513 1514 1515 1515 1516 1516 1516 1516 1516 1516 1516 1516 1515 1514 1514 1513 1512 1511 1510
1459 1461 1464 1467 1469 1472 1474 1476 1478 1481 1483 1486 1489 1491 1494 1496 1498 1500 1501 1501 1501 1503 1504 1505 1506 1508 1509 1509 1510 1510 1511 1511 1511 1511 1511 1510 1510 1509 1509 1508 1507 1506 1506
1453 1455 1458 1460 1463 1465 1467 1470 1472 1474 1476 1478 1481 1484 1486 1488 1492 1494 1495 1495 1495 1496 1497 1498 1499 1501 1502 1503 1503 1504 1504 1504 1505 1505 1505 1504 1504 1504 1503 1503 1502 1501 1501
1448 1450 1452 1455 1457 1459 1461 1463 1465 1467 1469 1470 1472 1475 1478 1480 1483 1485 1488 1489 1489 1489 1489 1490 1492 1493 1494 1496 1496 1497 1497 1498 1498 1499 1499 1498 1498 1498 1498 1497 1497 1496 1495
1443 1445 1447 1449 1451 1453 1455 1457 1458 1460 1462 1463 1465 1467 1470 1472 1475 1477 1479 1481 1483 1482 1481 1483 1484 1485 1487 1488 1489 1489 1490 1490 1491 1491 1492 1491 1491 1491 1491 1491 1491 1491 1490
1439 1441 1442 1444 1445 1447 1448 1450 1451 1452 1454 1456 1458 1460 1462 1464 1466 1468 1470 1473 1474 1475 1474 1475 1477 1478 1479 1480 1481 1482 1482 1482 1483 1483 1484 1484 1484 1485 1485 1485 1485 1485 1485
1435 1437 1438 1439 1440 1441 1442 1444 1444 1446 1447 1448 1450 1452 1453 1456 1458 1459 1461 1463 1465 1467 1466 1467 1469 1470 1471 1472 1473 1473 1474 1474 1475 1475 1476 1476 1477 1477 1478 1478 1479 1479 1479
1433 1433 1434 1435 1435 1436 1437 1438 1439 1440 1441 1441 1443 1445 1446 1448 1450 1452 1454 1455 1456 1458 1459 1458 1460 1461 1462 1464 1465 1465 1466 1466 1466 1467 1468 1468 1469 1470 1470 1471 1471 1472 1472
1430 1431 1431 1431 1432 1432 1433 1433 1434 1434 1435 1436 1437 1438 1439 1441 1442 1444 1445 1446 1448 1450 1450 1451 1451 1453 1454 1455 1456 1456 1457 1457 1458 1459 1460 1460 1461 1462 1462 1463 1464 1465 1466
1429 1429 1429 1429 1429 1429 1429 1430 1430 1430 1430 1430 1431 1432 1432 1433 1434 1436 1437 1438 1440 1441 1442 1443 1443 1444 1445 1446 1447 1447 1447 1449 1450 1451 1451 1452 1453 1454 1455 1456 1457 1458 1459
1428 1427 1427 1427 1427 1427 1427 1426 1426 1426 1426 1425 1425 1425 1425 1426 1426 1428 1429 1430 1431 1432 1433 1434 1434 1435 1436 1437 1438 1438 1438 1440 1441 1442 1443 1443 1445 1445 1446 1448 1449 1450 1452
1427 1426 1425 1425 1424 1424 1423 1423 1422 1422 1421 1420 1419 1419 1419 1419 1420 1420 1421 1422 1423 1424 1425 1426 1426 1426 1427 1429 1430 1430 1430 1431 1431 1434 1435 1434 1436 1437 1438 1440 1442 1443 1445
1427 1426 1424 1423 1422 1421 1421 1420 1419 1418 1417 1416 1414 1414 1413 1413 1413 1413 1413 1414 1415 1416 1417 1418 1417 1417 1419 1420 1422 1421 1422 1422 1422 1424 1425 1425 1427 1428 1430 1431 1434 1436 1438
1427 1425 1424 1423 1421 1420 1418 1417 1416 1414 1413 1412 1411 1409 1408 1407 1407 1406 1406 1406 1406 1407 1408 1409 1409 1410 1411 1412 1413 1413 1413 1414 1414 1415 1416 1417 1418 1420 1422 1424 1426 1428 1430
1428 1426 1424 1422 1420 1419 1417 1415 1413 1411 1409 1408 1407 1405 1403 1401 1400 1400 1400 1399 1399 1399 1400 1401 1401 1401 1402 1403 1404 1404 1404 1405 1404 1405 1407 1408 1409 1412 1414 1415 1418 1420 1423
1428 1426 1424 1421 1419 1417 1415 1413 1411 1409 1407 1405 1403 1401 1399 1397 1395 1394 1394 1393 1392 1391 1392 1392 1392 1392 1393 1393 1394 1395 1395 1396 1396 1396 1397 1400 1401 1404 1406 1408 1410 1413 1416